BELINTERSAT-1

Last updated on Sun Jun 21 2026 00:03:06 GMT+0000 (Coordinated Universal Time)

1 41238U 16001A 26171.25959689 .00000102 00000+0 00000+0 0 9997 2 41238 0.0250 255.7113 0002262 151.5546 6.1424 1.00273986 38262
UTC large
Height (km)
Speed (km/s)
/
Latitude / Longitude
Inclination (degrees)
Orbital Period (minutes)
Azimuth
Elevation
Range (km)
Doppler Factor

Next 0 passes for location: London (51.5072 / 0.1276)

No passes found over London.
BELINTERSAT-1